Weather History for KMCO - October, 2013

Change the Weather History Date:

Monday, October 21, 2013

  Actual Average Record
Temperature  
Mean Temperature 82 °F 74 °F  
Max Temperature 91 °F 84 °F 93 °F (2006)
Min Temperature 72 °F 65 °F 44 °F (1989)
Degree Days  
Heating Degree Days 0 0  
Month to date heating degree days 0 0  
Since 1 July heating degree days 0 0  
Cooling Degree Days 17 10  
Month to date cooling degree days 296 248  
Year to date cooling degree days 3281 3124  
Growing Degree Days 32 (Base 50)    
Moisture  
Dew Point 72 °F    
Average Humidity 75    
Maximum Humidity 93    
Minimum Humidity 56    
Precipitation  
Precipitation 0.00 in 0.10 in 1.60 in (1959)
Month to date precipitation 0.15 2.53  
Year to date precipitation 41.52 45.20  
Sea Level Pressure  
Sea Level Pressure 29.97 in    
Wind  
Wind Speed 5 mph (NE)    
Max Wind Speed 16 mph    
Max Gust Speed 20 mph    
Visibility 10 miles    
Events      
T = Trace of Precipitation, MM = Missing Value Source: NWS Daily Summary

Daily Weather History Graph

Daily Weather History Graph

Search for Another Location

Airport or City:

Trip Planner

Search our weather history database for the weather conditions in past years. The results will help you decide how hot, cold, wet, or windy it might be!

Date:

Astronomy

Oct. 21, 2013 Rise Set
Actual Time 7:29 AM EDT 6:49 PM EDT
Civil Twilight 7:05 AM EDT 7:13 PM EDT
Nautical Twilight 6:38 AM EDT 7:40 PM EDT
Astronomical Twilight 6:10 AM EDT 8:08 PM EDT
Moon 8:52 PM EDT (10/21) 9:52 AM EDT (10/21)
Length of Visible Light 12h 07m
Length of Day
11h 19m
Waning Gibbous, 93% of the Moon is Illuminated
Oct 21
Waning Gibbous
Oct 26
Last Quarter
Nov 3
New
Nov 10
First Quarter
Nov 17
Full

Hourly Weather History & Observations

Time (EDT) Temp. Heat Index Dew Point Humidity Pressure Visibility Wind Dir Wind Speed Gust Speed Precip Events Conditions
12:53 AM 75.9 °F - 71.1 °F 85% 29.97 in 10.0 mi NNE 4.6 mph - N/A   Mostly Cloudy
1:53 AM 75.0 °F - 71.1 °F 87% 29.97 in 10.0 mi North 5.8 mph - N/A   Mostly Cloudy
2:53 AM 73.9 °F - 71.1 °F 91% 29.96 in 10.0 mi Calm Calm - N/A   Scattered Clouds
3:53 AM 73.9 °F - 71.1 °F 91% 29.96 in 10.0 mi NNE 3.5 mph - N/A   Mostly Cloudy
4:53 AM 73.9 °F - 71.1 °F 91% 29.97 in 10.0 mi NNE 4.6 mph - N/A   Scattered Clouds
5:53 AM 73.9 °F - 71.1 °F 91% 29.97 in 10.0 mi Calm Calm - N/A   Partly Cloudy
6:53 AM 73.9 °F - 72.0 °F 93% 29.98 in 10.0 mi North 3.5 mph - N/A   Partly Cloudy
7:53 AM 73.0 °F - 71.1 °F 93% 29.99 in 10.0 mi East 3.5 mph - N/A   Partly Cloudy
8:53 AM 77.0 °F - 73.9 °F 90% 30.00 in 10.0 mi Calm Calm - N/A   Partly Cloudy
9:14 AM 78.8 °F - 73.4 °F 83% 30.01 in 10.0 mi SE 4.6 mph - N/A   Partly Cloudy
9:53 AM 80.1 °F 84.5 °F 73.9 °F 81% 30.01 in 10.0 mi Variable 3.5 mph - N/A   Scattered Clouds
10:53 AM 84.0 °F 90.2 °F 73.0 °F 69% 30.01 in 10.0 mi SSE 5.8 mph - N/A   Scattered Clouds
11:53 AM 86.0 °F 93.8 °F 73.9 °F 67% 30.00 in 10.0 mi West 5.8 mph - N/A   Scattered Clouds
12:53 PM 87.1 °F 94.5 °F 73.0 °F 63% 29.99 in 10.0 mi SW 4.6 mph - N/A   Mostly Cloudy
1:53 PM 87.1 °F 94.5 °F 73.0 °F 63% 29.96 in 10.0 mi Calm Calm - N/A   Mostly Cloudy
2:53 PM 89.1 °F 97.0 °F 73.0 °F 59% 29.94 in 10.0 mi SSW 3.5 mph - N/A   Mostly Cloudy
3:53 PM 89.1 °F 95.0 °F 71.1 °F 55% 29.91 in 10.0 mi Calm Calm - N/A   Mostly Cloudy
4:53 PM 90.0 °F 96.4 °F 71.1 °F 54% 29.91 in 10.0 mi SW 9.2 mph - N/A   Mostly Cloudy
5:53 PM 88.0 °F 93.8 °F 71.1 °F 57% 29.92 in 10.0 mi WSW 5.8 mph - N/A   Scattered Clouds
6:47 PM 82.4 °F 89.5 °F 75.2 °F 79% 29.94 in 10.0 mi NNE 11.5 mph - N/A   Mostly Cloudy
6:53 PM 82.0 °F 88.6 °F 75.0 °F 79% 29.94 in 10.0 mi NE 11.5 mph - N/A   Mostly Cloudy
7:53 PM 78.1 °F - 73.0 °F 84% 29.95 in 10.0 mi NE 10.4 mph - N/A   Partly Cloudy
8:53 PM 77.0 °F - 72.0 °F 84% 29.97 in 10.0 mi East 5.8 mph - N/A   Scattered Clouds
9:53 PM 77.0 °F - 73.0 °F 88% 29.98 in 10.0 mi NE 6.9 mph - N/A   Mostly Cloudy
10:53 PM 75.9 °F - 72.0 °F 87% 29.98 in 10.0 mi ENE 4.6 mph - N/A   Mostly Cloudy
10:58 PM 75.2 °F - 71.6 °F 89% 29.98 in 10.0 mi ENE 5.8 mph - N/A   Mostly Cloudy
11:14 PM 75.2 °F - 71.6 °F 89% 29.98 in 10.0 mi ENE 5.8 mph - N/A   Mostly Cloudy
11:53 PM 75.9 °F - 72.0 °F 87% 29.97 in 10.0 mi ENE 6.9 mph - N/A   Mostly Cloudy